Location: Carrières
(48.9495°N, 2.0407°E)
Time: 20:00:17
(UTC+00:00)

Transit 2A Rocket - Pass Details

Date: 01 May 2024
Orbit: 585 x 908 km, 66.7° (Epoch: 18 May)

Event Time Altitude Azimuth Distance (km) Brightness Sun altitude
Rises 08:38:06 0° 197° (SSW) 2,891 8.1 38.7°
Reaches altitude 10° 08:40:19 10° 192° (SSW) 2,025 7.4 39.0°
Maximum altitude 08:44:43 49° 118° (ESE) 872 7.8 39.7°
Drops below altitude 10° 08:49:34 10° 44° (NE) 2,225 7.7 40.4°
Sets 08:52:06 0° 39° (NE) 3,209 8.3 40.8°
